This demonstration page uses our WeatherBlox Daily Observations layout. Learn more.

Left ArrowRight Arrow

Hourly Observations for March 18, 2020

Temp ( °F °C ) Dew Point ( °F °C ) Humidity (%) Winds ( mph kmh ) Pressure ( in mb ) Visibility ( mi km ) Precip ( " mm )
12:03 am 00:03 Cloudy 43 6 39 4 87 87 SE 6 9 30.09 1019 10 16 0.00 0.00
12:56 am 00:56 Cloudy 43 6.1 41 4.9 92 92 ESE 8 13 30.07 1018 8 13 0.01 0.25
1:11 am 01:11 Cloudy with Light Rain 43 6 41 5 93 93 E 7 11 30.06 1018 5 8 0.00 0.00
1:26 am 01:26 Cloudy 43 6 41 5 93 93 E 7 11 30.04 1017 7 11 0.00 0.00
1:41 am 01:41 Cloudy 43 6 41 5 93 93 E 8 13 30.03 1017 7 11 0.00 0.00
1:56 am 01:56 Cloudy with Mist and Fog 43 6 41 5 93 93 E 8 13 30.02 1017 6 10 0.06 1.52
2:26 am 02:26 Cloudy with Light Rain 43 6 41 5 93 93 E 8 13 30.01 1016 5 8 0.00 0.00
2:56 am 02:56 Cloudy with Light Rain 43 6 41 5 93 93 ESE 8 13 29.99 1016 5 8 0.02 0.51
3:56 am 03:56 Cloudy with Light Rain 43 6.1 41 5.2 94 94 ESE 8 13 29.98 1015 4 6 0.10 2.54
4:11 am 04:11 Cloudy with Heavy Rain 43 6 41 5 93 93 ESE 7 11 29.98 1015 3 5 0.00 0.00
4:26 am 04:26 Cloudy with Light Rain 43 6 41 5 93 93 E 6 9 29.98 1015 3 4 0.00 0.00
4:41 am 04:41 Cloudy with Light Rain 43 6 41 5 93 93 E 7 11 29.98 1015 3 5 0.00 0.00
4:56 am 04:56 Cloudy with Light Rain 43 6.1 41 5.2 94 94 E 8 13 29.96 1015 3 5 0.22 5.59
5:56 am 05:56 Cloudy with Mist and Fog 43 6.1 42 5.5 96 96 ENE 6 9 29.96 1015 8 13 0.16 4.06
6:11 am 06:11 Cloudy with Mist and Fog 43 6 41 5 93 93 E 8 13 29.95 1014 9 14 0.00 0.00
6:26 am 06:26 Cloudy with Mist and Fog 43 6 43 6 100 100 E 6 9 29.96 1015 6 10 0.00 0.00
6:56 am 06:56 Cloudy with Light Rain 44 6.4 42 5.7 95 95 E 6 9 29.96 1015 5 8 0.02 0.51
7:41 am 07:41 Cloudy with Drizzle 43 6 43 6 100 100 NE 3 6 29.96 1015 6 10 0.00 0.00
7:56 am 07:56 Cloudy with Mist and Fog 43 6.2 42 5.5 95 95 NE 5 7 29.96 1015 6 10 0.04 1.02
8:56 am 08:56 Cloudy with Mist and Fog 44 6.5 42 5.8 95 95 NE 5 7 29.97 1015 4 6 0.00 0.00
9:56 am 09:56 Cloudy with Mist and Fog 45 7 43 6.3 95 95 ENE 5 7 29.97 1015 5 8 0.00 0.00
10:26 am 10:26 Cloudy with Mist and Fog 45 7 45 7 100 100 E 5 7 29.98 1015 2 4 0.00 0.00
10:41 am 10:41 Cloudy with Mist and Fog 46 8 45 7 93 93 E 6 9 29.99 1016 7 11 0.00 0.00
11:41 am 11:41 Cloudy with Mist and Fog 46 8 45 7 93 93 ESE 3 6 29.99 1016 3 5 0.00 0.00
11:56 am 11:56 Cloudy with Mist and Fog 47 8.5 46 7.6 94 94 E 3 6 29.98 1015 3 5 0.00 0.00
12:56 pm 12:56 Cloudy 49 9.6 46 7.9 89 89 Calm 29.98 1015 10 16 0.00 0.00
1:11 pm 13:11 Cloudy 50 10 46 8 88 88 SE 3 6 29.96 1015 10 16 0.00 0.00
1:26 pm 13:26 Cloudy 50 10 46 8 88 88 Calm 29.96 1015 10 16 0.00 0.00
1:41 pm 13:41 Cloudy 52 11 48 9 88 88 Calm 29.96 1015 10 16 0.00 0.00
1:56 pm 13:56 Cloudy 51 10.5 47 8.3 86 86 Calm 29.95 1014 10 16 0.00 0.00
2:41 pm 14:41 Cloudy 52 11 48 9 88 88 Calm 29.93 1014 10 16 0.00 0.00
2:56 pm 14:56 Cloudy 52 10.9 47 8.5 85 85 NE 5 7 29.93 1014 10 16 0.00 0.00
3:56 pm 15:56 Cloudy 55 12.5 49 9.3 81 81 NNE 6 9 29.91 1013 10 16 0.00 0.00
4:56 pm 16:56 Cloudy 56 13.1 49 9.3 78 78 ENE 5 7 29.94 1014 10 16 0.00 0.00
5:56 pm 17:56 Mostly Cloudy 55 12.9 49 9.3 79 79 NE 5 7 29.92 1013 10 16 0.00 0.00
6:56 pm 18:56 Cloudy 54 12.3 48 8.8 79 79 Calm 29.95 1014 10 16 0.00 0.00
7:56 pm 19:56 Cloudy 53 11.8 48 8.8 82 82 NE 5 7 29.95 1014 10 16 0.00 0.00
8:26 pm 20:26 Cloudy 54 12 48 9 82 82 NE 6 9 29.95 1014 10 16 0.00 0.00
8:41 pm 20:41 Cloudy 54 12 48 9 82 82 NE 6 9 29.94 1014 10 16 0.00 0.00
8:56 pm 20:56 Cloudy 53 11.5 48 9.1 85 85 NE 5 7 29.94 1014 10 16 0.00 0.00
9:56 pm 21:56 Cloudy 52 11.1 48 8.8 86 86 NE 5 7 29.94 1014 10 16 0.00 0.00
10:05 pm 22:05 Cloudy 52 11 48 9 88 88 ENE 5 7 29.94 1014 10 16 0.00 0.00
10:35 pm 22:35 Cloudy 52 11 50 10 94 94 E 7 11 29.94 1014 10 16 0.00 0.00
10:45 pm 22:45 Cloudy 52 11 50 10 94 94 ESE 6 9 29.94 1014 10 16 0.00 0.00
10:56 pm 22:56 Cloudy 52 11.2 50 10.1 93 93 ESE 8 13 29.94 1014 7 11 0.00 0.00
11:11 pm 23:11 Cloudy with Mist and Fog 52 11 50 10 94 94 ESE 6 9 29.94 1014 3 5 0.00 0.00
11:56 pm 23:56 Cloudy 52 10.9 50 10.1 95 95 ESE 6 9 29.93 1014 10 16 0.00 0.00

Powered by AerisWeather